• In Netherlands
  • List of Countries
  • For 7 days
  • Water Temperature
  • Satellite Maps
  • Weather Map
  • Weather Widgets
  • user-avatar
    Login

    Hourly Weather Santiago del Estero

    Today, 26 July, Wednesday

    Time Temperature Precipitation Wind Pressure Humidity
    00:00 +18°C° 0 mm 1 mps 745 mmHg 88%
    01:00 +16°C° 0 mm 2 mps 745 mmHg 90%
    02:00 +16°C° 0 mm 2 mps 745 mmHg 91%
    03:00 +16°C° 0 mm 2 mps 745 mmHg 92%
    04:00 +15°C° 0 mm 2 mps 745 mmHg 93%
    05:00 +15°C° 0 mm 2 mps 745 mmHg 95%
    06:00 +15°C° 0 mm 1 mps 745 mmHg 94%
    07:00 +16°C° 0 mm 1 mps 746 mmHg 92%
    08:00 +16°C° 0 mm 1 mps 746 mmHg 91%
    09:00 +19°C° 0 mm 1 mps 746 mmHg 82%
    10:00 +21°C° 0 mm 1 mps 746 mmHg 74%
    11:00 +23°C° 0 mm 1 mps 747 mmHg 65%
    12:00 +24°C° 0 mm 1 mps 746 mmHg 61%
    13:00 +26°C° 0 mm 2 mps 745 mmHg 56%
    14:00 +27°C° 0 mm 2 mps 744 mmHg 52%
    15:00 +27°C° 0 mm 2 mps 744 mmHg 52%
    16:00 +28°C° 0 mm 2 mps 744 mmHg 52%
    17:00 +28°C° 0 mm 2 mps 743 mmHg 52%
    18:00 +26°C° 0 mm 2 mps 744 mmHg 57%
    19:00 +25°C° 0 mm 2 mps 744 mmHg 62%
    20:00 +24°C° 0 mm 2 mps 744 mmHg 67%
    21:00 +23°C° 0 mm 2 mps 744 mmHg 71%
    22:00 +21°C° 0 mm 2 mps 744 mmHg 74%
    23:00 +21°C° 0 mm 3 mps 744 mmHg 78%

    Tomorrow, 27 July, Thursday

    Time Temperature Precipitation Wind Pressure Humidity
    00:00 +20°C° 0 mm 2 mps 744 mmHg 80%
    01:00 +20°C° 0 mm 2 mps 743 mmHg 82%
    02:00 +19°C° 0 mm 2 mps 743 mmHg 84%
    03:00 +20°C° 0 mm 1 mps 743 mmHg 83%
    04:00 +20°C° 0 mm 1 mps 742 mmHg 83%
    05:00 +19°C° 0 mm 1 mps 742 mmHg 82%
    06:00 +20°C° 0 mm 1 mps 742 mmHg 78%
    07:00 +19°C° 0 mm 2 mps 742 mmHg 75%
    08:00 +20°C° 0 mm 2 mps 742 mmHg 72%
    09:00 +23°C° 0 mm 4 mps 742 mmHg 57%
    10:00 +27°C° 0 mm 6 mps 742 mmHg 43%
    11:00 +31°C° 0 mm 8 mps 742 mmHg 29%
    12:00 +33°C° 0 mm 9 mps 742 mmHg 26%
    13:00 +34°C° 0 mm 9 mps 741 mmHg 23%
    14:00 +35°C° 0 mm 9 mps 740 mmHg 20%
    15:00 +35°C° 0 mm 8 mps 739 mmHg 22%
    16:00 +34°C° 0 mm 7 mps 739 mmHg 23%
    17:00 +34°C° 0 mm 6 mps 738 mmHg 24%
    18:00 +32°C° 0 mm 5 mps 738 mmHg 25%
    19:00 +30°C° 0 mm 5 mps 739 mmHg 27%
    20:00 +28°C° 0 mm 5 mps 739 mmHg 28%
    21:00 +28°C° 0 mm 5 mps 739 mmHg 28%
    22:00 +27°C° 0 mm 5 mps 739 mmHg 28%
    23:00 +27°C° 0 mm 5 mps 739 mmHg 28%

    Day after tomorrow, 28 July, Friday

    Time Temperature Precipitation Wind Pressure Humidity
    00:00 +27°C° 0 mm 6 mps 739 mmHg 29%
    01:00 +26°C° 0 mm 6 mps 738 mmHg 29%
    02:00 +26°C° 0 mm 6 mps 738 mmHg 29%
    03:00 +26°C° 0 mm 6 mps 738 mmHg 30%
    04:00 +24°C° 0 mm 6 mps 738 mmHg 31%
    05:00 +24°C° 0 mm 6 mps 737 mmHg 32%
    06:00 +24°C° 0 mm 6 mps 738 mmHg 32%
    07:00 +24°C° 0 mm 7 mps 738 mmHg 33%
    08:00 +24°C° 0 mm 7 mps 739 mmHg 33%
    09:00 +28°C° 0 mm 8 mps 739 mmHg 30%
    10:00 +31°C° 0 mm 9 mps 739 mmHg 26%
    11:00 +33°C° 0 mm 11 mps 739 mmHg 23%
    12:00 +34°C° 0 mm 10 mps 738 mmHg 22%
    13:00 +36°C° 0 mm 10 mps 738 mmHg 21%
    14:00 +38°C° 0 mm 10 mps 737 mmHg 20%
    15:00 +37°C° 0 mm 9 mps 737 mmHg 20%
    16:00 +35°C° 0 mm 7 mps 737 mmHg 21%
    17:00 +35°C° 0 mm 6 mps 737 mmHg 22%
    18:00 +33°C° 0 mm 6 mps 737 mmHg 23%
    19:00 +32°C° 0 mm 6 mps 738 mmHg 24%
    20:00 +30°C° 0 mm 6 mps 738 mmHg 26%
    21:00 +29°C° 0 mm 6 mps 738 mmHg 26%
    22:00 +29°C° 0 mm 6 mps 739 mmHg 27%
    23:00 +28°C° 0 mm 6 mps 739 mmHg 27%

    29 July, Saturday

    Time Temperature Precipitation Wind Pressure Humidity
    00:00 +28°C° 0 mm 6 mps 739 mmHg 28%
    01:00 +27°C° 0 mm 5 mps 739 mmHg 29%
    02:00 +26°C° 0 mm 5 mps 738 mmHg 29%
    03:00 +26°C° 0 mm 5 mps 739 mmHg 30%
    04:00 +25°C° 0 mm 5 mps 739 mmHg 30%
    05:00 +25°C° 0 mm 5 mps 739 mmHg 31%
    06:00 +25°C° 0 mm 4 mps 740 mmHg 31%
    07:00 +25°C° 0 mm 4 mps 740 mmHg 32%
    08:00 +23°C° 0 mm 4 mps 741 mmHg 33%
    09:00 +27°C° 0 mm 5 mps 741 mmHg 30%
    10:00 +29°C° 0 mm 6 mps 742 mmHg 27%
    11:00 +32°C° 0 mm 7 mps 742 mmHg 24%
    12:00 +34°C° 0 mm 7 mps 742 mmHg 23%
    13:00 +35°C° 0 mm 6 mps 741 mmHg 23%
    14:00 +36°C° 0 mm 5 mps 741 mmHg 22%
    15:00 +35°C° 0 mm 4 mps 741 mmHg 23%
    16:00 +35°C° 0 mm 3 mps 741 mmHg 24%
    17:00 +35°C° 0 mm 2 mps 741 mmHg 25%
    18:00 +32°C° 0 mm 2 mps 741 mmHg 28%
    19:00 +30°C° 0 mm 2 mps 742 mmHg 31%
    20:00 +28°C° 0 mm 2 mps 743 mmHg 34%
    21:00 +27°C° 0 mm 2 mps 743 mmHg 36%
    22:00 +26°C° 0 mm 3 mps 743 mmHg 38%
    23:00 +25°C° 0 mm 3 mps 744 mmHg 39%

    30 July, Sunday

    Time Temperature Precipitation Wind Pressure Humidity
    00:00 +23°C° 0 mm 4 mps 744 mmHg 43%
    01:00 +22°C° 0 mm 5 mps 744 mmHg 47%
    02:00 +21°C° 0 mm 5 mps 744 mmHg 50%
    03:00 +20°C° 0 mm 5 mps 744 mmHg 54%
    04:00 +19°C° 0 mm 6 mps 745 mmHg 58%
    05:00 +17°C° 0 mm 6 mps 745 mmHg 62%
    06:00 +17°C° 0 mm 6 mps 746 mmHg 63%
    07:00 +17°C° 0 mm 6 mps 746 mmHg 63%
    08:00 +16°C° 0 mm 6 mps 747 mmHg 63%
    09:00 +19°C° 0 mm 6 mps 747 mmHg 58%
    10:00 +20°C° 0 mm 6 mps 748 mmHg 53%
    11:00 +21°C° 0 mm 6 mps 748 mmHg 48%
    12:00 +22°C° 0 mm 5 mps 747 mmHg 46%
    13:00 +23°C° 0 mm 5 mps 747 mmHg 43%
    14:00 +25°C° 0 mm 5 mps 746 mmHg 41%
    15:00 +25°C° 0 mm 5 mps 746 mmHg 42%
    16:00 +25°C° 0 mm 5 mps 746 mmHg 43%
    17:00 +23°C° 0 mm 4 mps 746 mmHg 44%
    18:00 +22°C° 0 mm 4 mps 746 mmHg 48%
    19:00 +21°C° 0 mm 4 mps 747 mmHg 52%
    20:00 +19°C° 0 mm 4 mps 747 mmHg 56%
    21:00 +19°C° 0 mm 4 mps 748 mmHg 60%
    22:00 +18°C° 0 mm 4 mps 748 mmHg 64%
    23:00 +17°C° 0 mm 4 mps 748 mmHg 67%

    31 July, Monday

    Time Temperature Precipitation Wind Pressure Humidity
    00:00 +15°C° 0 mm 4 mps 748 mmHg 70%
    01:00 +14°C° 0 mm 3 mps 747 mmHg 73%
    02:00 +14°C° 0 mm 3 mps 747 mmHg 76%
    03:00 +13°C° 0 mm 3 mps 747 mmHg 77%
    04:00 +14°C° 0 mm 2 mps 747 mmHg 79%
    05:00 +13°C° 0 mm 2 mps 747 mmHg 81%
    06:00 +13°C° 0 mm 2 mps 747 mmHg 80%
    07:00 +12°C° 0 mm 3 mps 747 mmHg 79%
    08:00 +12°C° 0 mm 3 mps 747 mmHg 78%
    09:00 +14°C° 0 mm 3 mps 747 mmHg 72%
    10:00 +17°C° 0 mm 3 mps 747 mmHg 65%
    11:00 +18°C° 0 mm 4 mps 747 mmHg 58%
    12:00 +20°C° 0 mm 4 mps 746 mmHg 55%
    13:00 +21°C° 0 mm 3 mps 745 mmHg 52%
    14:00 +22°C° 0 mm 3 mps 744 mmHg 49%
    15:00 +22°C° 0 mm 3 mps 743 mmHg 50%
    16:00 +22°C° 0 mm 3 mps 743 mmHg 51%
    17:00 +21°C° 0 mm 4 mps 743 mmHg 52%
    18:00 +20°C° 0 mm 3 mps 743 mmHg 57%
    19:00 +19°C° 0 mm 3 mps 743 mmHg 62%
    20:00 +17°C° 0 mm 3 mps 744 mmHg 67%
    21:00 +17°C° 0 mm 3 mps 744 mmHg 69%
    22:00 +16°C° 0 mm 3 mps 744 mmHg 72%
    23:00 +14°C° 0 mm 3 mps 743 mmHg 74%
    Show more